Volver al catálogo

STARLINK-35683

ActivoComunicacionesVLEO
NORAD 66405·PAYLOAD·🇺🇸 United States

Lanzado Nov 8, 2025 desde Cape Canaveral Space Force Station

Loading…

Próximos Pases (próximas 24 horas)

TLE

ActualizadoSource: CelesTrak SupGP

Época: Sep 15, 2026, 03:57 UTC

1 66405C 25257AB  26258.16506944 -.00005467  00000+0 -16157-3 0  2584
2 66405  53.1581  52.9141 0001247  78.9904 135.0224 15.34383618    19

Sigue STARLINK-35683 en tiempo real con AllMySat

Download on the App Store